Dewpoint
67 65 70 70 70 69 70 69 69 70 70 70 70 70 70 70 69 68 67 67 67 67 65 65 65 65 65 65 64 64 64 65 65 66 66 65 65 66 66 65 65 63 66
69 70 70 70 70 70 70 70 69 70 70 70 70 70 70 69 68 67 67 67 67 66 64 63 63 63 64 64 64 65 65 65 64 64 64 62 64 64 64 64 64 63 65
69 70 69 70 70 69 70 70 70 70 70 70 70 69 69 69 67 67 67 67 67 67 65 65 65 65 65 64 65 65 64 64 64 63 61 57 57 61 60 61 61 62 62
69 69 69 69 69 69 69 70 70 70 70 70 70 69 69 68 68 68 67 67 67 67 65 65 65 65 65 65 65 64 63 62 61 60 56 57 58 61 61 61 61 59 58
68 67 68 69 69 69 69 69 70 70 69 69 69 69 68 68 67 68 67 67 67 66 65 65 65 65 65 65 64 64 62 61 60 57 56 56 58 59 60 58 58 58 60
63 66 67 67 68 69 69 69 69 70 68 68 68 68 67 67 67 67 66 66 66 64 63 64 65 64 64 64 63 63 62 60 58 55 56 58 57 59 58 58 58 57 58
63 65 67 68 68 69 69 69 69 69 68 68 68 67 67 66 66 66 66 66 64 63 63 63 64 65 64 63 62 61 60 59 54 54 55 55 55 58 58 58 57 56 56
63 63 66 68 67 67 67 67 67 68 68 67 67 67 66 66 66 66 65 64 64 65 66 66 65 63 63 62 61 61 61 58 55 55 55 55 58 58 58 57 56 56 56
64 63 63 64 65 65 65 64 65 67 67 67 67 67 66 66 65 65 65 64 63 64 65 65 63 63 63 61 61 61 60 58 54 54 54 54 58 58 58 57 56 55 55
65 64 64 63 63 62 63 63 63 66 66 67 67 67 66 66 65 63 62 62 62 62 63 64 63 62 62 61 61 60 60 57 54 54 55 56 57 57 57 56 56 55 54
63 60 61 61 61 60 60 61 63 63 63 65 67 66 65 64 62 60 61 61 61 61 62 63 63 62 61 61 61 60 56 54 55 55 56 59 58 57 57 56 55 55 54
61 60 60 59 59 58 60 61 60 59 61 64 66 65 64 62 60 59 61 61 60 60 60 62 63 62 59 57 58 57 54 55 55 56 57 59 58 57 56 56 54 53 53
61 60 60 58 58 57 57 57 59 58 61 63 65 64 62 61 61 60 58 57 56 57 52 52 50 51 53 53 53 54 55 55 56 57 59 59 57 57 56 57 56 54 52
60 60 60 58 58 57 55 55 58 58 60 60 62 62 61 60 58 58 57 55 53 51 50 49 47 47 49 51 53 54 55 55 56 57 59 59 59 57 58 58 57 56 53
59 59 60 59 58 56 53 54 56 58 58 60 60 61 60 58 56 56 56 54 52 51 49 47 44 44 45 47 50 53 54 55 55 56 57 59 59 58 58 58 57 56 54
58 59 59 58 58 56 52 53 54 54 56 59 60 59 57 56 56 55 54 52 50 50 50 47 43 40 39 41 45 48 50 52 52 54 54 56 58 58 58 58 57 56 56
56 57 59 59 57 57 56 55 55 56 54 57 59 57 55 54 54 54 52 52 50 50 50 47 45 41 38 38 40 44 45 45 45 47 49 51 53 56 58 59 58 58 56
55 56 58 60 57 56 56 57 59 59 58 57 57 56 54 54 55 54 52 52 51 51 51 48 46 43 39 38 38 39 41 42 43 43 45 48 49 50 55 58 59 59 57
54 55 56 59 58 58 58 58 58 58 57 57 56 55 55 54 55 53 54 54 53 52 52 49 47 45 40 38 37 38 39 39 40 42 44 47 48 50 51 55 58 58 59
54 55 56 57 58 58 57 56 55 55 52 54 55 56 56 56 56 56 56 55 54 53 52 50 47 46 44 40 35 36 38 38 38 40 44 46 47 48 51 54 57 56 57
53 54 54 56 56 56 56 56 55 54 52 51 53 56 57 57 59 57 57 56 55 53 53 50 47 45 43 42 39 40 40 39 39 38 41 45 47 47 49 51 52 52 53
52 53 54 55 56 56 56 55 55 55 54 54 51 53 55 56 58 58 57 56 55 54 52 50 47 44 44 42 39 40 38 40 42 41 38 41 43 45 46 48 49 49 48
52 52 54 54 54 54 54 55 55 54 53 53 51 49 52 54 54 56 57 56 55 53 52 51 48 45 43 43 43 41 38 38 39 40 40 38 40 40 44 46 47 47 46
50 51 52 52 51 52 53 53 53 53 50 51 50 48 49 53 55 55 56 57 56 55 53 52 51 48 46 45 46 45 43 42 38 37 38 40 39 38 38 43 45 45 45
50 51 50 51 51 49 49 50 52 52 52 52 49 49 50 51 54 55 54 55 55 55 54 53 52 50 50 49 47 46 44 42 42 41 39 39 39 40 39 38 40 42 41
50 51 50 50 50 49 49 49 49 49 48 49 49 49 49 51 52 54 55 55 55 55 54 53 52 52 51 50 50 49 45 43 42 40 39 39 37 38 40 40 39 39 39
Lifted_Index
-6 -5 -5 -6 -6 -5 -5 -5 -5 -5 -4 -4 -4 -4 -3 -3 -2 -2 -1 -0 -0 0 1 2 2 2 3 3 3 3 3 2 2 2 2 2 2 1 1 1 1 1 1
-7 -7 -6 -6 -6 -6 -5 -5 -5 -5 -5 -4 -4 -4 -3 -3 -2 -1 -1 -1 -0 0 1 2 2 2 3 3 3 3 3 2 2 3 3 3 2 2 2 2 2 2 2
-8 -8 -7 -7 -7 -6 -6 -6 -6 -5 -5 -4 -4 -3 -3 -2 -2 -2 -1 -1 -1 -0 1 1 2 2 2 2 2 2 2 3 3 3 4 4 4 3 4 4 3 3 3
-8 -8 -7 -7 -7 -6 -6 -6 -6 -5 -5 -4 -4 -3 -3 -2 -2 -2 -1 -1 -1 -0 1 1 1 1 2 2 2 2 3 3 4 4 4 4 4 4 4 4 4 5 5
-8 -7 -7 -7 -6 -6 -6 -6 -5 -5 -4 -4 -4 -3 -2 -2 -1 -2 -2 -1 -1 0 1 1 1 1 2 2 2 3 4 4 5 5 4 4 4 4 5 5 5 5 5
-7 -7 -6 -6 -6 -6 -5 -5 -5 -5 -4 -4 -4 -3 -2 -1 -1 -2 -2 -1 -0 1 1 1 1 1 2 2 3 3 4 5 5 5 4 4 4 5 5 6 6 6 6
-6 -6 -5 -5 -5 -5 -5 -5 -5 -5 -4 -4 -3 -3 -2 -1 -1 -1 -1 -1 0 1 1 1 1 2 2 3 3 4 4 5 5 5 5 5 5 5 6 6 6 7 7
-5 -5 -5 -4 -4 -3 -3 -3 -3 -3 -3 -3 -3 -2 -2 -1 -1 -1 -1 0 1 1 0 0 1 2 2 3 3 4 5 5 5 5 5 5 5 5 6 6 7 7 7
-4 -4 -3 -3 -3 -2 -1 -1 -1 -2 -2 -2 -2 -2 -1 -1 -1 -1 0 1 1 1 0 0 1 2 3 3 3 4 5 5 5 5 5 5 5 5 6 6 7 7 8
-3 -2 -2 -2 -1 -0 0 1 0 -1 -2 -2 -2 -2 -1 -1 -0 1 1 2 2 1 1 1 2 2 3 3 3 4 5 5 5 5 5 5 5 5 6 6 7 8 8
-3 -2 -1 -0 0 1 1 2 2 1 -0 -1 -2 -1 -0 0 1 2 2 2 2 3 2 2 2 2 3 3 3 4 5 5 5 5 4 4 5 5 6 7 7 8 8
-2 -2 -0 1 1 1 2 3 3 3 1 -0 -1 -0 0 1 2 2 3 3 3 4 4 3 2 3 4 4 4 4 5 5 5 4 4 4 4 5 6 6 7 8 9
-2 -1 -0 1 1 2 3 4 4 4 2 1 0 0 1 2 2 3 4 4 5 5 5 5 4 4 5 5 4 4 4 5 4 4 4 4 4 5 5 6 7 8 8
-1 -1 -1 0 1 2 3 4 5 4 3 2 2 2 2 3 3 4 5 6 6 6 6 6 6 6 5 5 4 4 4 4 4 4 3 3 4 4 5 5 6 7 8
-0 -0 -0 -0 1 2 3 5 5 4 4 3 2 2 3 4 4 5 5 6 7 7 6 6 7 6 6 5 4 4 4 4 4 3 3 3 4 4 4 4 5 6 7
0 -0 -0 -0 1 1 3 4 5 5 4 4 3 3 3 4 5 5 5 6 6 6 6 6 6 6 6 6 5 5 5 5 4 4 4 4 4 4 4 4 4 5 6
0 0 0 0 0 1 2 4 5 5 4 4 3 3 3 4 5 5 5 5 5 5 5 5 4 5 5 5 6 6 6 6 6 6 5 5 5 4 4 4 4 4 5
0 0 0 1 1 1 2 3 3 3 3 3 3 3 4 5 5 5 5 5 5 4 4 3 3 3 4 4 5 5 6 6 6 6 6 7 7 6 5 4 4 4 4
1 1 1 1 1 1 2 2 2 2 3 3 3 3 4 5 5 5 5 4 4 3 3 2 2 2 2 3 3 4 5 6 7 7 7 7 8 8 7 5 4 4 4
2 2 2 2 2 1 2 2 2 2 3 3 3 4 5 5 4 4 4 4 3 2 2 1 1 1 1 1 2 2 4 5 6 7 7 7 8 8 8 7 5 4 4
3 3 3 3 2 1 2 2 2 3 3 3 4 4 4 4 4 3 3 2 2 1 1 1 0 0 0 1 1 2 3 4 6 7 7 7 7 8 8 7 6 5 5
4 4 4 4 2 2 2 3 3 3 3 3 3 4 4 3 3 2 2 1 1 0 -0 -0 0 0 1 1 1 1 2 3 4 5 6 7 7 7 7 7 7 7 7
4 4 4 4 2 2 2 3 4 3 4 4 3 3 4 4 4 3 2 1 1 0 -0 0 0 1 1 1 1 1 1 2 3 3 4 5 6 6 6 7 7 8 8
5 4 4 3 3 2 2 3 4 4 4 4 3 3 4 5 5 4 3 2 1 1 0 0 0 0 0 1 1 1 1 1 2 2 3 4 5 5 6 6 7 8 9
5 4 4 3 3 2 2 3 4 4 4 4 3 3 4 5 5 5 4 3 2 2 1 1 0 0 0 0 1 1 1 1 1 2 2 3 4 5 6 6 7 8 8
5 4 4 3 3 3 3 3 3 3 3 3 3 3 4 5 5 5 4 3 3 2 2 1 0 -0 -0 0 0 0 1 1 1 1 2 2 3 5 6 6 7 8 8